Weather History for Arbor Vitae, WI

Change the Weather History Date:

Monday, September 2, 2013

  Actual Average Record
Temperature  
Mean Temperature 52 °F -  
Max Temperature 59 °F 72 °F 90 °F (1953)
Min Temperature 44 °F 48 °F 34 °F (1916)
Degree Days  
Heating Degree Days 14    
Growing Degree Days 2 (Base 50)    
Moisture  
Dew Point 49 °F    
Average Humidity 87    
Maximum Humidity 100    
Minimum Humidity 71    
Precipitation  
Precipitation 0.00 in - - ()
Sea Level Pressure  
Sea Level Pressure 30.02 in    
Wind  
Wind Speed 8 mph (North)    
Max Wind Speed 15 mph    
Max Gust Speed 20 mph    
Visibility 9 miles    
Events Rain    
Averages and records for this station are not official NWS values.
T = Trace of Precipitation, MM = Missing Value Source: NWS Daily Summary

Daily Weather History Graph

Daily Weather History Graph

Search for Another Location

Airport:

Trip Planner

Search our weather history database for the weather conditions in past years. The results will help you decide how hot, cold, wet, or windy it might be!

Date:

Astronomy

Sep. 02, 2013 Rise Set
Actual Time 6:21 AM CDT 7:34 PM CDT
Civil Twilight 5:50 AM CDT 8:05 PM CDT
Nautical Twilight 5:13 AM CDT 8:42 PM CDT
Astronomical Twilight 4:34 AM CDT 9:21 PM CDT
Moon 3:32 AM CDT (9/2) 5:52 PM CDT (9/2)
Length of Visible Light 14h 14m
Length of Day
13h 13m
Waning Crescent, 8% of the Moon is Illuminated
Sep 2
Waning Crescent
Sep 5
New
Sep 12
First Quarter
Sep 19
Full
Sep 26
Last Quarter

Hourly Weather History & Observations

Time (CDT) Temp. Dew Point Humidity Pressure Visibility Wind Dir Wind Speed Gust Speed Precip Events Conditions
12:15 AM 56.8 °F 54.9 °F 93% 29.92 in 5.0 mi North 8.1 mph - N/A   Overcast
12:35 AM 56.8 °F 54.9 °F 93% 29.93 in 4.0 mi North 12.7 mph 18.4 mph N/A   Drizzle
12:55 AM 56.8 °F 54.9 °F 93% 29.93 in 10.0 mi North 10.4 mph 16.1 mph N/A   Overcast
1:15 AM 56.8 °F 54.9 °F 93% 29.93 in 10.0 mi NNW 5.8 mph - N/A   Overcast
1:35 AM 56.8 °F 54.7 °F 92% 29.93 in 10.0 mi North 5.8 mph - N/A   Overcast
1:55 AM 56.8 °F 54.7 °F 92% 29.94 in 7.0 mi North 10.4 mph - N/A   Overcast
2:15 AM 54.5 °F 52.2 °F 92% 29.94 in 4.0 mi North 9.2 mph - N/A Rain Light Rain
2:35 AM 54.5 °F 52.3 °F 92% 29.94 in 4.0 mi North 8.1 mph - N/A   Overcast
2:55 AM 53.1 °F 51.1 °F 93% 29.94 in 5.0 mi North 6.9 mph - N/A   Overcast
3:15 AM 52.7 °F 50.5 °F 92% 29.95 in 10.0 mi North 8.1 mph - N/A   Overcast
3:35 AM 52.2 °F 50.2 °F 93% 29.95 in 10.0 mi North 8.1 mph - N/A   Overcast
3:55 AM 51.8 °F 49.8 °F 93% 29.95 in 10.0 mi North 8.1 mph - N/A   Overcast
4:15 AM 51.8 °F 49.5 °F 92% 29.95 in 10.0 mi North 6.9 mph - N/A   Overcast
4:35 AM 51.8 °F 49.5 °F 92% 29.95 in 10.0 mi North 6.9 mph - N/A   Overcast
4:55 AM 51.8 °F 49.5 °F 92% 29.96 in 10.0 mi NNW 8.1 mph - N/A   Overcast
5:15 AM 51.8 °F 49.3 °F 91% 29.96 in 10.0 mi North 8.1 mph - N/A   Overcast
5:35 AM 51.8 °F 49.1 °F 90% 29.97 in 10.0 mi North 9.2 mph - N/A   Overcast
5:55 AM 51.8 °F 49.6 °F 92% 29.98 in 5.0 mi NNW 11.5 mph 16.1 mph N/A   Light Drizzle
6:15 AM 51.8 °F 49.5 °F 92% 29.99 in 10.0 mi North 10.4 mph - N/A   Overcast
6:35 AM 51.8 °F 49.3 °F 91% 29.99 in 10.0 mi North 10.4 mph - N/A   Overcast
6:55 AM 51.8 °F 49.3 °F 91% 29.99 in 10.0 mi North 8.1 mph - N/A   Overcast
7:15 AM 51.8 °F 49.3 °F 91% 29.99 in 10.0 mi North 8.1 mph - N/A   Overcast
7:35 AM 51.8 °F 49.5 °F 92% 30.00 in 4.0 mi North 5.8 mph - N/A   Overcast
7:55 AM 51.8 °F 49.3 °F 91% 30.01 in 7.0 mi North 9.2 mph - N/A   Overcast
8:15 AM 51.8 °F 49.5 °F 92% 30.01 in 5.0 mi North 9.2 mph - N/A Rain Rain
8:35 AM 51.8 °F 49.5 °F 92% 30.01 in 5.0 mi North 8.1 mph - N/A Rain Light Rain
8:55 AM 51.8 °F 49.5 °F 92% 30.02 in 5.0 mi North 9.2 mph - N/A Rain Light Rain
9:15 AM 51.8 °F 49.3 °F 91% 30.03 in 10.0 mi North 12.7 mph - N/A   Overcast
9:35 AM 51.8 °F 48.9 °F 90% 30.03 in 10.0 mi North 11.5 mph 17.3 mph N/A   Overcast
9:55 AM 51.8 °F 48.2 °F 88% 30.04 in 10.0 mi North 11.5 mph - N/A   Overcast
10:15 AM 52.9 °F 48.9 °F 86% 30.04 in 10.0 mi North 13.8 mph 19.6 mph N/A   Overcast
10:35 AM 51.8 °F 48.2 °F 88% 30.04 in 10.0 mi North 10.4 mph - N/A   Overcast
10:55 AM 54.5 °F 50.2 °F 85% 30.04 in 10.0 mi North 9.2 mph - N/A   Overcast
11:15 AM 56.8 °F 51.1 °F 81% 30.05 in 10.0 mi North 11.5 mph 19.6 mph N/A   Overcast
11:35 AM 56.8 °F 50.2 °F 78% 30.05 in 10.0 mi North 10.4 mph - N/A   Overcast
11:55 AM 56.8 °F 50.5 °F 79% 30.05 in 10.0 mi North 11.5 mph 17.3 mph N/A   Overcast
12:15 PM 56.8 °F 50.4 °F 79% 30.04 in 10.0 mi NNE 10.4 mph 18.4 mph N/A   Overcast
12:35 PM 56.8 °F 50.9 °F 80% 30.05 in 10.0 mi North 10.4 mph 15.0 mph N/A   Overcast
12:55 PM 56.8 °F 50.0 °F 78% 30.05 in 10.0 mi North 11.5 mph 17.3 mph N/A   Overcast
1:15 PM 56.8 °F 50.0 °F 78% 30.05 in 10.0 mi North 15.0 mph - N/A   Overcast
1:35 PM 56.8 °F 49.3 °F 76% 30.05 in 10.0 mi North 12.7 mph 16.1 mph N/A   Overcast
1:55 PM 56.8 °F 49.6 °F 77% 30.05 in 10.0 mi North 12.7 mph 18.4 mph N/A   Overcast
2:15 PM 56.8 °F 49.5 °F 76% 30.04 in 10.0 mi NNW 10.4 mph - N/A   Overcast
2:35 PM 56.8 °F 49.5 °F 76% 30.04 in 10.0 mi NNW 13.8 mph 17.3 mph N/A   Overcast
2:55 PM 56.8 °F 49.5 °F 76% 30.04 in 10.0 mi NNW 11.5 mph - N/A   Overcast
3:15 PM 56.8 °F 48.9 °F 75% 30.04 in 10.0 mi North 8.1 mph - N/A   Overcast
3:35 PM 56.8 °F 49.1 °F 75% 30.04 in 10.0 mi North 10.4 mph - N/A   Overcast
3:55 PM 58.1 °F 48.7 °F 71% 30.04 in 10.0 mi North 5.8 mph - N/A   Overcast
4:15 PM 56.8 °F 49.5 °F 76% 30.03 in 10.0 mi NNW 8.1 mph - N/A   Overcast
4:35 PM 59.4 °F 51.4 °F 75% 30.03 in 10.0 mi North 6.9 mph - N/A   Overcast
4:55 PM 59.4 °F 50.9 °F 74% 30.04 in 10.0 mi NNW 10.4 mph - N/A   Overcast
5:15 PM 57.0 °F 49.8 °F 77% 30.04 in 10.0 mi NNW 5.8 mph - N/A   Overcast
5:35 PM 56.8 °F 50.5 °F 79% 30.04 in 10.0 mi NW 8.1 mph - N/A   Overcast
5:55 PM 56.8 °F 50.4 °F 79% 30.04 in 10.0 mi NNW 8.1 mph - N/A   Overcast
6:15 PM 56.8 °F 50.9 °F 80% 30.05 in 10.0 mi NNW 5.8 mph - N/A   Overcast
6:35 PM 56.8 °F 51.1 °F 81% 30.05 in 10.0 mi NNW 6.9 mph - N/A   Overcast
6:55 PM 56.8 °F 51.1 °F 81% 30.04 in 10.0 mi NNW 4.6 mph - N/A   Overcast
7:15 PM 56.8 °F 51.3 °F 82% 30.05 in 10.0 mi NW 4.6 mph - N/A   Overcast
7:35 PM 56.8 °F 51.1 °F 81% 30.05 in 10.0 mi NNW 4.6 mph - N/A   Overcast
7:52 PM 53.6 °F 48.2 °F 82% 30.05 in 10.0 mi NNW 3.5 mph - N/A   Mostly Cloudy
7:55 PM 54.5 °F 49.3 °F 83% 30.05 in 10.0 mi NNW 3.5 mph - N/A   Mostly Cloudy
8:12 PM 53.6 °F 50.0 °F 88% 30.05 in 10.0 mi Calm Calm - N/A   Mostly Cloudy
8:15 PM 53.4 °F 49.1 °F 85% 30.05 in 10.0 mi Calm Calm - N/A   Mostly Cloudy
8:32 PM 51.8 °F 48.2 °F 88% 30.05 in 10.0 mi Calm Calm - N/A   Scattered Clouds
8:35 PM 51.8 °F 48.4 °F 88% 30.05 in 10.0 mi Calm Calm - N/A   Clear
8:52 PM 51.8 °F 48.2 °F 88% 30.05 in 10.0 mi NW 3.5 mph - N/A   Clear
8:55 PM 51.8 °F 48.6 °F 89% 30.05 in 10.0 mi Calm Calm - N/A   Clear
9:12 PM 51.8 °F 48.2 °F 88% 30.04 in 10.0 mi Calm Calm - N/A   Clear
9:32 PM 51.8 °F 48.2 °F 88% 30.04 in 10.0 mi Calm Calm - N/A   Clear
9:35 PM 51.8 °F 49.1 °F 90% 30.04 in 10.0 mi Calm Calm - N/A   Clear
9:52 PM 51.8 °F 48.2 °F 88% 30.04 in 10.0 mi Calm Calm - N/A   Clear
9:55 PM 51.8 °F 49.1 °F 90% 30.04 in 10.0 mi Calm Calm - N/A   Clear
10:12 PM 48.2 °F 46.4 °F 93% 30.05 in 10.0 mi Calm Calm - N/A   Clear
10:15 PM 49.3 °F 47.3 °F 93% 30.05 in 10.0 mi Calm Calm - N/A   Clear
10:32 PM 46.4 °F 44.6 °F 93% 30.05 in 10.0 mi Calm Calm - N/A   Clear
10:35 PM 48.6 °F 46.4 °F 92% 30.05 in 10.0 mi Calm Calm - N/A   Clear
10:52 PM 48.2 °F 46.4 °F 93% 30.05 in 3.0 mi Calm Calm - N/A   Clear
10:55 PM 47.8 °F 45.7 °F 92% 30.05 in 3.0 mi Calm Calm - N/A   Clear
11:12 PM 46.4 °F 44.6 °F 93% 30.05 in 10.0 mi Calm Calm - N/A   Clear
11:15 PM 46.8 °F 44.8 °F 93% 30.05 in 10.0 mi Calm Calm - N/A   Clear
11:32 PM 46.4 °F 44.6 °F 93% 30.05 in 10.0 mi Calm Calm - N/A   Clear
11:35 PM 45.9 °F 43.9 °F 93% 30.04 in 10.0 mi Calm Calm - N/A   Clear
11:52 PM 44.6 °F 44.6 °F 100% 30.04 in 10.0 mi Calm Calm - N/A   Clear
11:55 PM 45.5 °F 43.7 °F 93% 30.04 in 10.0 mi Calm Calm - N/A   Clear